Notices

What's New in latest Release from April 7th, 2021:

- Updated Glossary, including Speed of Maximum Gust, and Total Hourly Precipitation

- Updated national and regional climate services offices contacts and prices information

- Addition of station inventory lists for 1981-2010, 1971-2000, and 1961-1990 Normals.

If you haven't already, please take our survey and provide feedback about our website: https://eccc.sondage-survey.ca/f/LanguageSelection.aspx?s=442ca660-fcf1-47c0-95a9-59707d6fd709

Hourly Data Report for December 16, 2020

FORT GOOD HOPE CS
NORTHWEST TERRITORIES
Current Station Operator: ECCC - MSC

66°14'32.044" N
128°38'39.081" W
81.70 m
2201450
71491
ZGH

Download Data

Hourly Data (December 2020)
Hourly Data Report for December 16, 2020
TIME
LST
Temp Definition
°C
Dew Point Definition
°C
Rel Hum Definition
%
Precip. Amount Definition
mm

Wind Dir Definition
10's deg

Wind Spd Definition
km/h
Visibility Definition
km
Stn Press Definition
kPa
Hmdx Definition


Wind Chill Definition


Weather Definition


00:00 -27.9 -31.1 75 0.0 27 7   100.88   -35 LegendNANA
01:00 -27.6 -30.7 75 0.0 27 6   100.91   -34 LegendNANA
02:00 -27.4 -30.5 75 0.0 28 6   100.97   -34 LegendNANA
03:00 -27.3 -30.4 75 0.0 28 5   101.02   -33 LegendNANA
04:00 -27.5 -30.6 75 0.1 29 4   101.05   -32 LegendNANA
05:00 -28.5 -31.7 74 0.0 28 4   101.07   -33 LegendNANA
06:00 -29.2 -32.4 74 0.0 30 7   101.11   -36 LegendNANA
07:00 -31.0 -34.4 72 0.0 27 5   101.16   -37 LegendNANA
08:00 -30.5 -33.8 73 0.0 28 8   101.16   -39 LegendNANA
09:00 -33.1 -36.7 70 0.0 26 7   101.16   -41 LegendNANA
10:00 -34.4 -38.1 69 0.0 26 4   101.19   -39 LegendNANA
11:00 -35.7 -39.3 70 0.0 25 5   101.23   -42 LegendNANA
12:00 -35.7 -39.3 69 0.0 23 5   101.26   -42 LegendNANA
13:00 -36.5 -40.1 69 0.0 25 6   101.28   -44 LegendNANA
14:00 -36.0 -39.6 69 0.0 27 6   101.30   -43 LegendNANA
15:00 -38.2 -42.0 68 0.0 23 5   101.32   -45 LegendNANA
16:00 -37.1 -40.8 69 0.0 24 5   101.32   -44 LegendNANA
17:00 -37.8 -41.6 67 0.0 23 3   101.32   -42 LegendNANA
18:00 -39.4 -43.3 67 0.0 20 6   101.35   -47 LegendNANA
19:00 -40.5 -44.4 66 0.0 21 4   101.35   -46 LegendNANA
20:00 -40.2 -44.1 66 0.0 20 5   101.34   -47 LegendNANA
21:00 -40.3 -44.2 66 0.0 20 4   101.36   -46 LegendNANA
22:00 -40.7 -44.7 66 0.0 20 5   101.38   -48 LegendNANA
23:00 -41.0 -45.0 66 0.0 18 1   101.40   -42 LegendNANA

Notes on Data Quality.

Legend

  • E = Estimated
  • M = Missing
  • NA = Not Available*
  • [empty] = Indicates an unobserved value
Date modified: